RH
84 84 85 85 88 90 91 91 91 90 91 90 87 87 82 76 76 75 76 78 78 79 79 77 77 78 80 81 80 81 82 82 81 82 83 79 79 82 82 82 81 77 77 76 71 66 62 60 58 57 55 55 56 56 55 51 47 44 41 39 36 35 34 34 33 31 29 29 30 34 38 40 41 41 41 41 41 42 42 42 43 45 46 48 50 51 50 49 52 55 55 55 57 57 58 61 62
85 84 84 86 88 91 91 91 90 89 88 87 85 83 78 74 75 75 77 78 77 78 79 78 78 78 79 79 79 80 82 83 82 80 79 77 78 82 81 79 78 76 75 72 66 62 59 57 55 54 53 51 51 51 48 45 43 41 39 38 35 34 34 32 31 29 29 30 33 37 40 41 42 42 42 42 42 42 41 42 43 45 46 47 48 50 50 49 50 54 53 52 55 55 56 58 60
83 83 85 88 89 91 92 91 89 87 86 85 83 79 76 76 76 75 75 75 76 77 78 78 79 79 80 81 80 81 83 83 80 77 78 76 76 80 80 76 74 75 73 69 64 61 58 55 54 53 52 50 48 47 44 42 42 40 38 37 35 34 33 31 30 29 30 32 35 38 41 44 45 44 44 45 44 44 43 44 44 45 46 46 47 48 49 48 49 52 52 51 53 53 55 56 57
81 83 86 89 90 91 91 90 88 86 83 82 79 76 75 75 73 72 73 74 75 76 77 77 79 81 81 82 81 81 84 83 78 75 76 75 72 75 77 74 71 71 69 66 63 61 57 54 54 52 50 49 47 43 40 41 41 39 38 37 35 34 32 31 30 31 33 33 35 39 44 47 47 47 46 46 47 46 46 46 47 48 48 49 49 48 48 47 48 51 50 50 52 52 53 55 57
81 83 87 87 89 89 87 87 86 83 81 78 74 71 70 68 68 70 73 76 75 76 77 77 81 82 81 83 82 82 83 81 78 74 73 72 69 71 73 72 70 67 65 62 60 58 55 53 52 50 48 48 46 41 39 39 39 37 36 35 34 33 32 31 32 33 34 34 37 42 46 49 48 48 47 47 49 49 49 50 50 50 51 52 53 52 51 50 50 52 50 49 50 51 53 54 56
81 84 87 87 87 86 84 83 81 80 76 72 71 68 67 64 64 67 71 73 74 76 77 79 81 82 83 85 83 83 82 78 77 75 71 68 66 68 70 69 67 63 61 59 57 55 54 52 50 48 48 48 45 41 38 37 36 35 34 34 34 33 32 33 34 34 35 37 40 45 48 49 49 49 49 50 52 54 55 56 57 58 59 59 60 58 56 54 53 53 52 50 50 51 52 54 55
77 80 83 84 82 81 81 79 77 76 72 67 68 66 64 63 62 63 67 69 71 73 76 79 79 80 84 84 83 83 82 77 75 72 69 65 63 64 66 65 63 60 59 58 56 54 53 51 49 47 48 49 45 41 37 34 33 32 33 34 34 33 34 34 35 35 37 40 44 47 49 49 49 49 52 54 56 58 59 61 63 64 64 65 65 64 63 61 57 56 55 54 52 51 51 53 54
74 76 77 78 78 76 76 75 74 73 68 64 63 60 60 63 62 62 64 66 68 69 70 74 75 79 83 81 82 81 80 76 70 68 67 64 61 62 63 62 60 59 59 57 55 53 52 50 48 47 48 48 44 40 35 33 32 32 33 34 35 34 34 34 35 37 40 43 46 48 49 49 49 51 54 55 56 57 58 60 60 61 61 63 65 65 66 66 63 60 59 58 57 56 55 54 54
75 76 76 75 74 75 72 69 68 70 68 64 62 58 58 60 61 61 64 65 64 64 65 69 70 76 82 80 81 79 77 73 66 66 65 63 60 60 62 61 59 58 56 55 54 53 52 49 47 48 47 45 41 37 34 33 33 33 35 36 36 35 35 35 36 39 42 44 47 48 49 50 50 52 54 53 53 54 55 55 54 55 57 61 63 64 66 67 65 61 59 60 61 61 60 59 58
76 77 76 73 71 73 69 61 61 68 68 66 64 58 57 58 59 61 63 65 64 63 63 65 67 74 80 78 79 76 73 69 63 63 63 62 61 58 59 59 57 55 54 54 52 52 51 48 47 47 45 41 37 35 34 34 34 35 36 37 37 36 36 37 38 40 43 45 47 49 51 51 51 52 52 50 51 51 52 52 51 52 54 57 60 62 64 65 64 61 59 59 60 61 61 61 61
76 76 75 73 71 71 68 60 55 60 63 64 63 55 53 54 56 59 60 63 63 65 64 63 66 72 76 74 74 73 69 65 61 60 60 60 59 56 56 56 55 53 52 51 50 49 48 46 45 45 42 38 35 34 35 35 35 36 38 38 38 37 37 38 40 42 44 46 48 51 52 50 48 49 49 48 49 50 51 51 50 50 51 53 56 58 60 61 60 58 57 56 55 56 56 56 58
76 77 76 74 72 70 67 62 53 53 55 56 58 51 47 49 51 56 60 62 62 65 64 63 64 67 71 69 71 70 66 64 60 57 57 57 54 54 54 54 53 51 50 49 46 45 45 44 43 42 38 35 34 35 36 36 37 38 39 39 39 39 39 40 41 43 45 47 48 48 48 45 43 46 47 46 48 48 50 50 48 49 50 51 52 52 53 53 52 52 51 51 52 52 52 53 55
77 77 75 73 71 68 62 59 54 53 51 49 52 47 45 49 52 55 60 63 63 63 64 63 62 63 67 68 68 69 66 64 60 57 56 55 53 52 52 52 50 49 49 46 45 43 43 43 40 38 36 34 34 36 37 37 39 40 40 40 39 39 39 40 41 43 45 46 44 43 42 40 38 41 42 43 44 45 48 49 48 48 49 49 49 48 49 50 51 52 53 53 53 53 54 56 58
75 75 73 72 69 65 59 58 58 55 51 46 47 47 48 50 51 54 57 63 64 63 63 64 62 62 67 68 67 67 65 63 59 56 56 56 54 53 51 50 49 48 47 45 44 43 43 42 39 36 35 36 36 38 38 37 39 40 40 40 39 39 39 40 41 43 44 44 41 39 40 38 36 37 38 40 41 43 45 46 45 44 43 42 43 45 47 49 51 51 51 51 50 50 52 54 57
72 71 70 69 67 64 60 60 59 56 50 46 46 46 48 49 51 52 53 60 65 62 61 64 64 62 64 65 65 65 64 61 57 55 55 54 53 52 50 49 49 48 47 44 43 44 44 42 39 36 37 38 39 40 39 38 40 40 40 39 38 39 39 40 41 42 43 42 40 39 40 38 36 36 37 38 39 40 41 41 41 39 38 37 38 40 42 43 43 42 42 41 41 42 42 45 46
72 70 69 66 66 65 62 61 58 55 50 48 47 44 46 48 50 51 52 55 62 64 61 63 63 60 60 60 60 59 60 59 55 53 53 52 50 48 48 48 48 48 47 44 43 44 43 43 40 38 39 40 40 40 40 41 42 42 41 40 39 39 40 40 41 41 41 41 41 40 39 37 35 36 37 38 39 39 39 39 38 36 35 34 36 38 39 39 39 37 37 37 37 37 37 38 36
71 71 71 69 69 66 63 62 56 52 52 52 50 45 46 48 49 51 52 54 60 66 62 60 62 61 60 58 56 55 56 57 54 53 52 50 49 47 46 46 46 47 45 42 43 43 43 44 42 40 41 41 40 40 41 43 44 44 43 41 41 41 40 40 39 40 42 42 41 40 37 36 35 36 37 37 38 38 38 38 38 37 34 33 35 38 38 37 38 37 37 38 40 39 36 35 32
71 71 72 72 70 65 62 60 52 50 53 54 51 48 47 47 48 47 46 49 55 60 58 57 60 62 62 60 57 54 54 55 52 51 51 50 50 49 47 44 44 45 42 40 41 41 41 44 43 41 41 40 40 40 42 43 45 45 43 42 42 41 40 39 39 41 42 42 41 39 36 35 35 36 36 37 38 38 37 37 38 37 34 32 33 36 38 37 38 37 37 40 43 42 36 32 30
71 70 72 72 66 60 59 57 50 49 53 53 51 50 49 49 47 44 43 46 47 49 53 56 60 63 64 63 59 54 53 54 51 49 49 50 51 51 49 45 44 43 39 38 40 38 39 40 42 41 40 39 39 40 41 43 45 45 43 42 42 40 39 39 39 41 42 41 39 37 34 34 35 36 37 39 39 38 37 37 37 37 35 34 33 36 37 38 39 37 38 40 43 44 40 35 32
70 70 70 67 61 59 58 55 52 49 52 53 52 51 50 52 50 45 44 45 44 44 49 55 61 64 65 64 60 56 53 53 51 48 48 50 50 49 48 46 43 42 38 38 40 38 37 37 39 40 40 39 40 40 40 42 43 43 43 41 39 38 38 39 40 42 41 39 37 35 34 34 36 36 38 39 40 39 38 39 39 37 36 36 35 37 37 39 39 37 38 41 43 45 44 41 38
71 69 67 62 60 61 58 55 53 51 52 52 53 52 50 52 52 48 45 45 46 43 44 48 54 61 63 62 60 57 54 53 51 48 47 49 48 46 45 44 43 41 38 38 40 38 36 36 37 38 39 39 40 40 39 40 42 42 41 39 37 37 38 40 41 42 40 38 36 34 34 35 36 38 39 40 39 39 40 42 41 39 38 37 37 39 39 39 39 38 39 42 43 45 45 43 42
68 67 65 63 61 62 58 54 53 52 54 53 51 50 49 51 52 49 45 44 44 40 40 41 44 51 55 54 54 56 55 53 51 47 46 47 47 44 42 41 41 38 37 38 39 36 35 35 36 36 37 38 38 38 37 38 40 40 39 36 34 35 37 39 41 40 39 36 34 34 36 37 38 39 41 41 40 39 41 43 42 39 39 39 39 42 43 42 42 40 39 41 43 45 45 44 43
66 64 64 64 62 61 59 54 52 53 55 55 51 48 49 51 52 50 44 40 38 35 39 40 38 42 47 49 49 51 52 51 50 46 43 44 44 43 40 38 38 36 35 38 37 34 34 35 35 35 35 36 36 35 35 36 37 37 37 34 32 34 37 38 39 39 37 34 33 34 37 39 40 40 41 41 41 41 42 44 42 40 41 43 43 44 46 45 44 43 41 42 43 44 44 43 42
65 64 63 63 60 59 57 54 51 51 53 54 50 47 49 53 53 51 45 38 36 35 38 39 38 39 42 45 47 48 48 48 46 43 41 41 41 41 39 37 36 34 35 37 35 32 33 34 34 34 34 33 33 33 33 34 34 35 36 35 33 34 36 37 38 37 35 32 33 36 39 41 41 41 42 44 43 42 43 44 44 42 43 46 47 47 48 47 46 44 44 44 43 42 42 41 41
61 62 63 62 59 57 57 55 52 50 50 51 48 46 49 51 52 51 47 41 38 36 37 40 40 41 40 41 45 48 49 47 44 41 40 40 40 40 39 38 35 32 33 34 33 32 33 34 33 33 32 31 31 31 31 31 32 34 35 35 34 33 34 35 36 35 34 33 34 37 39 42 42 42 44 45 44 44 44 45 46 45 46 48 48 48 49 49 47 44 45 45 44 45 44 41 41
57 58 61 61 59 57 57 54 52 50 48 47 46 46 48 50 51 51 49 45 42 38 37 38 39 40 40 40 44 47 48 47 43 41 40 40 40 39 37 36 33 31 31 31 31 31 31 32 31 30 30 29 29 29 29 30 31 34 35 34 33 32 32 33 34 34 34 35 35 37 39 41 41 41 43 45 44 45 46 46 47 47 48 49 48 48 49 49 47 46 46 46 46 48 46 42 42
54 55 57 58 58 57 54 51 50 49 47 45 44 46 47 48 48 49 50 49 47 43 39 37 37 38 39 41 44 47 48 47 44 44 43 41 40 38 35 33 31 30 30 30 29 29 30 32 31 30 30 30 29 29 29 30 31 33 34 33 32 32 31 31 33 34 36 37 37 38 40 41 41 40 43 45 46 47 47 47 48 48 49 50 50 50 50 49 48 47 47 47 47 47 47 45 44
52 52 53 55 54 53 50 49 48 47 45 43 43 45 45 47 47 47 52 53 50 49 45 41 40 40 40 41 45 47 48 48 46 45 42 38 36 36 34 32 30 30 30 28 29 29 31 32 32 31 31 30 30 30 30 31 32 33 33 32 32 32 31 32 33 35 37 38 40 41 41 42 43 43 44 45 46 48 48 48 49 49 49 50 51 52 52 51 50 49 49 48 49 47 47 46 44
49 49 51 52 51 49 47 46 46 46 44 41 43 47 46 45 47 47 52 55 52 54 54 49 45 43 42 42 45 46 46 49 49 44 38 33 32 33 32 31 30 31 30 28 29 30 31 32 32 32 31 30 29 29 31 32 32 33 33 32 32 33 33 34 35 36 38 39 41 43 43 44 45 44 44 45 46 46 48 48 47 47 48 49 50 52 52 52 51 51 50 47 46 45 45 46 44
48 50 49 49 48 47 45 45 46 46 43 39 42 47 44 43 46 49 54 55 55 57 58 55 51 47 44 43 45 46 44 45 46 43 37 32 31 32 30 30 30 31 30 28 29 30 32 32 32 31 30 29 29 28 30 32 32 32 32 32 33 33 34 35 36 38 39 39 41 43 43 44 44 44 44 43 44 44 45 46 45 44 47 48 49 49 50 50 51 51 48 48 49 45 43 45 46
49 50 48 46 47 46 44 44 46 45 42 40 41 41 39 41 46 51 54 56 56 58 58 57 53 49 45 42 44 47 45 42 43 42 39 34 33 32 31 30 29 30 30 28 28 30 32 32 31 31 30 29 28 27 28 31 31 31 31 32 33 33 34 36 37 38 39 40 41 43 43 43 42 42 42 41 42 42 42 43 43 43 45 45 44 45 46 47 49 50 47 50 54 47 42 43 43
47 50 49 45 44 45 43 44 44 44 42 40 39 37 35 38 44 51 54 56 57 57 58 57 55 50 45 43 43 47 46 42 42 42 40 36 34 33 31 29 29 29 29 27 28 30 31 32 32 32 30 29 28 28 29 30 31 32 32 32 32 33 34 35 36 37 39 40 41 42 43 43 42 42 42 42 41 41 41 41 41 42 42 41 41 41 42 42 43 44 43 45 48 45 42 41 38
45 47 48 45 43 44 43 42 43 43 41 38 36 35 34 36 43 51 54 56 57 58 58 58 56 53 47 42 42 45 45 42 41 40 39 37 35 34 31 29 29 29 28 27 28 29 30 31 32 32 31 29 28 29 30 30 31 31 31 31 31 32 33 34 35 37 39 39 40 41 43 43 43 43 45 45 44 43 43 41 40 39 39 39 40 40 39 39 39 40 42 42 42 42 43 40 35
44 43 43 43 44 45 44 42 41 41 39 36 32 32 34 39 46 51 54 55 57 57 58 59 58 57 50 41 40 43 44 41 38 37 36 35 34 33 32 30 30 30 29 28 29 30 31 31 31 31 31 31 30 29 30 30 31 31 31 29 29 31 32 33 35 37 38 39 40 42 43 43 44 45 47 48 47 46 44 42 41 40 40 39 39 39 38 38 38 37 38 38 36 36 37 36 33
42 41 41 43 43 43 44 42 40 39 39 35 32 31 35 44 48 50 54 55 56 58 58 59 59 59 55 46 41 42 44 41 36 35 35 34 34 33 32 31 30 30 29 29 31 30 31 31 30 31 31 31 30 30 30 31 31 31 30 28 26 28 30 32 33 34 36 38 40 42 42 43 45 46 47 49 49 48 46 44 44 43 41 39 38 37 37 36 35 33 31 32 31 30 30 31 30
37 39 39 41 42 41 40 40 39 38 37 35 33 31 35 45 50 50 54 55 55 57 58 58 59 60 58 51 44 41 43 42 34 33 35 35 35 33 32 31 29 30 29 29 31 31 30 30 29 30 30 30 30 30 29 29 29 29 29 27 25 25 28 31 31 32 34 36 39 41 41 43 46 47 48 49 50 49 47 46 45 44 41 39 38 36 35 33 30 29 29 30 30 29 29 30 30
33 36 35 36 38 38 37 38 38 37 36 35 34 32 33 44 51 51 53 55 55 56 57 58 58 60 58 52 47 43 43 43 35 33 35 35 36 35 32 31 30 30 30 29 30 30 29 29 28 28 28 28 28 26 25 25 25 25 26 25 25 25 27 29 30 31 33 35 38 40 40 43 45 47 47 48 49 49 48 46 45 43 40 38 36 33 31 29 27 28 29 29 29 29 30 31 31
30 34 34 36 36 34 35 36 37 36 34 34 34 31 32 42 50 51 52 54 55 55 56 57 57 59 59 54 50 47 44 40 35 33 35 35 36 35 34 32 31 30 30 28 28 28 28 27 27 26 27 26 24 23 23 22 21 23 24 25 27 27 27 28 29 30 31 33 36 38 40 41 43 44 45 45 47 47 47 47 45 42 39 36 34 31 29 27 27 29 29 28 28 30 31 32 32
27 33 34 35 33 32 34 36 36 37 34 32 34 31 31 39 45 48 50 52 53 54 54 56 56 58 59 55 51 49 45 40 37 33 32 33 35 34 34 33 31 29 29 28 26 27 27 26 25 25 25 24 22 22 21 21 21 22 24 26 28 28 28 28 29 32 33 34 34 35 37 38 39 40 41 42 44 46 48 47 46 44 40 36 33 30 28 29 30 31 31 31 32 34 35 36 37
23 30 32 31 31 31 34 36 36 36 33 32 34 33 33 39 43 43 46 49 52 53 53 54 56 57 57 56 53 50 47 44 42 37 30 30 33 34 33 31 30 29 29 28 26 25 25 24 23 23 22 21 20 20 20 21 23 24 25 27 29 29 29 28 29 31 32 32 31 31 31 33 35 36 37 40 43 45 47 47 46 44 39 35 33 31 30 32 33 35 37 37 38 39 41 43 44
21 27 28 28 30 31 33 37 37 35 32 30 33 34 36 40 41 41 44 47 48 49 51 53 55 56 55 56 54 49 47 46 45 41 33 28 29 32 31 29 28 28 26 26 25 23 22 21 21 21 20 19 19 19 19 22 23 24 25 26 28 28 27 26 25 25 26 27 26 26 27 29 31 33 35 37 40 43 45 47 46 42 37 34 33 31 33 36 37 40 41 42 43 45 48 50 51
19 22 23 25 29 31 32 37 38 36 33 31 31 34 37 40 39 40 43 45 46 47 49 52 54 55 54 55 54 50 46 46 45 41 36 30 27 29 30 29 27 26 24 23 22 22 20 20 21 21 20 19 18 18 19 21 22 23 24 24 23 23 23 22 22 23 24 25 25 25 26 27 28 30 32 34 37 40 44 46 45 40 35 33 32 33 37 38 39 42 43 44 47 50 53 56 55
17 16 18 24 28 30 32 35 37 37 36 34 32 32 35 37 37 39 42 43 45 46 48 50 52 54 53 53 54 50 46 46 46 42 37 32 28 27 29 27 25 22 20 20 20 20 20 21 21 21 21 19 19 19 19 20 20 21 22 21 21 21 20 20 22 24 25 26 27 27 28 28 28 28 29 31 34 38 41 44 43 38 34 32 33 36 39 39 40 43 45 48 52 55 58 59 56
15 12 15 22 25 28 30 31 33 34 35 34 32 31 30 30 32 36 40 41 44 46 47 48 50 51 52 52 53 51 46 45 46 44 40 36 30 26 26 25 20 17 17 18 19 19 20 20 20 21 21 21 20 20 20 20 19 19 20 20 21 20 19 20 23 25 26 27 28 28 28 28 29 28 28 30 32 35 38 42 40 34 33 33 34 37 40 41 43 47 50 52 54 56 58 56 53
13 12 15 18 20 24 27 28 29 31 32 30 30 31 28 26 31 35 37 40 42 43 44 47 48 50 51 51 52 52 48 45 45 45 43 41 34 27 24 22 18 15 15 17 17 17 18 19 20 20 21 21 21 21 20 20 19 19 19 20 20 20 20 21 23 25 25 26 27 28 28 29 30 29 28 30 32 33 36 38 35 32 33 34 35 39 42 45 48 51 52 51 52 53 53 51 50
11 11 14 16 17 20 25 26 27 29 29 24 26 30 27 25 29 32 34 37 39 40 42 44 47 48 50 50 50 51 50 47 45 45 44 43 37 28 23 22 19 17 17 16 16 16 17 19 20 20 20 20 20 20 21 20 20 19 19 19 19 19 20 21 22 24 24 24 25 27 28 29 30 30 30 31 32 33 35 35 32 32 34 36 39 43 47 49 50 51 49 49 51 52 49 48 47
10 10 11 13 14 17 23 26 26 26 23 20 22 28 26 23 25 28 29 31 34 37 41 43 44 46 48 49 48 49 50 49 46 45 44 44 40 32 28 27 24 22 21 20 18 18 18 18 19 20 19 19 20 20 20 20 20 20 19 18 18 18 19 20 21 22 22 22 22 23 26 28 30 31 32 33 32 32 33 33 32 34 37 39 43 47 49 49 49 50 49 49 50 49 46 45 45
11 11 11 12 15 16 18 22 22 21 19 17 20 25 25 21 21 25 25 25 29 34 37 39 41 44 46 47 47 47 48 49 48 46 45 46 43 37 33 32 30 27 25 24 22 20 19 18 19 19 19 20 20 20 20 21 21 20 20 19 18 18 18 19 20 20 21 21 20 20 22 25 28 30 32 32 32 32 32 31 32 36 39 41 45 46 46 46 48 50 49 47 47 46 45 44 43
13 14 13 14 17 16 16 18 18 17 17 17 19 22 22 19 20 23 23 23 26 30 34 36 37 41 44 45 46 46 47 48 48 47 46 45 43 40 36 34 34 32 28 25 23 22 21 20 19 19 19 19 20 20 21 21 21 21 20 19 19 19 19 19 19 19 20 20 20 20 20 21 25 28 30 31 31 32 32 32 33 37 40 42 43 42 42 45 49 49 46 43 43 43 43 43 42
13 15 15 16 18 18 18 19 17 15 16 15 18 22 21 18 19 19 19 21 24 26 31 33 34 36 40 42 43 43 45 47 48 48 47 44 41 40 39 36 36 37 34 30 26 23 21 20 20 19 19 19 19 20 20 21 21 21 21 21 21 21 20 20 20 20 20 20 19 19 18 19 21 25 28 30 32 34 35 34 35 38 41 42 42 40 42 46 48 46 42 39 38 40 42 43 44
13 14 15 16 17 18 17 17 16 15 15 15 16 20 20 17 17 17 17 19 21 23 25 28 30 33 35 39 40 41 42 44 46 48 47 46 43 41 41 38 36 37 37 37 34 30 26 23 21 20 19 20 20 20 20 20 21 23 24 24 24 24 23 21 21 21 21 21 19 19 18 17 19 22 27 30 33 36 37 36 36 39 41 42 40 39 43 46 46 43 38 36 38 39 41 43 44
14 13 15 15 15 15 14 15 15 14 14 15 16 19 21 18 17 18 17 18 20 21 22 24 26 29 32 35 36 37 39 40 44 46 47 47 47 45 43 41 39 37 37 38 38 37 35 30 26 23 21 22 23 23 22 21 21 22 24 25 26 27 26 24 23 22 21 21 20 19 17 17 18 20 25 29 33 36 37 36 37 38 40 40 38 38 42 45 44 39 35 36 38 40 41 42 43
16 15 14 13 12 12 14 15 14 12 14 16 17 17 18 17 16 17 16 17 19 20 21 22 22 25 27 30 32 34 35 36 39 42 44 45 47 48 46 44 42 41 39 38 37 38 37 36 33 30 27 26 27 27 26 24 23 23 23 25 26 27 28 27 26 24 23 22 21 20 19 18 18 19 23 27 33 37 36 35 36 38 39 39 37 39 43 44 42 37 35 36 39 40 41 41 43
16 15 13 12 13 13 16 16 14 13 16 16 15 15 15 16 17 18 16 16 17 18 20 21 21 22 23 24 28 31 32 32 33 37 41 43 45 47 47 46 45 44 43 40 38 38 39 38 36 35 34 32 29 28 27 26 26 25 24 24 25 27 29 29 28 27 26 24 22 20 19 19 19 20 23 26 32 36 35 34 36 38 39 39 39 41 43 42 40 37 37 38 40 41 42 42 43
14 15 13 14 15 15 16 18 17 16 17 16 14 15 15 15 16 17 15 14 16 17 19 20 20 21 20 21 23 25 27 27 29 33 38 41 43 44 46 46 45 46 45 42 40 41 41 40 39 38 37 35 32 32 30 28 26 25 25 24 24 26 28 29 29 29 29 27 24 21 20 19 19 22 24 26 31 34 32 32 34 37 39 40 43 45 43 41 39 39 39 40 41 42 43 43 43
14 15 14 15 16 15 15 17 16 17 18 17 14 13 13 13 13 14 14 14 16 17 18 20 19 19 20 20 20 21 22 23 27 31 35 37 40 42 44 44 44 45 46 44 43 43 43 42 41 40 39 38 37 37 35 32 29 27 26 25 25 25 27 29 30 31 30 29 26 23 21 19 20 23 25 27 30 31 30 30 33 37 40 41 45 46 43 41 40 41 41 42 42 43 43 43 43
14 15 16 15 16 15 15 16 15 15 17 18 16 12 10 12 13 11 11 13 15 16 17 18 18 18 18 19 20 20 20 22 28 31 33 35 37 40 43 43 44 45 46 45 44 43 43 43 43 42 41 40 39 37 36 35 34 32 31 29 27 27 27 28 30 31 31 30 28 26 23 21 21 24 26 29 29 29 28 30 34 38 41 43 46 46 42 40 41 43 43 43 43 43 42 42 43
13 15 15 14 15 16 17 18 16 14 16 18 17 12 9 12 13 10 10 11 12 14 15 17 17 16 16 17 18 19 20 23 28 30 31 34 36 39 42 43 44 45 46 45 44 43 43 43 43 43 43 42 39 37 36 36 37 36 34 31 30 29 28 27 27 28 29 29 29 28 26 24 24 24 27 29 29 27 27 30 35 40 42 44 46 45 41 40 41 44 45 44 42 41 41 40 40